Location: Hylvaty SDH
(49.9612°N, 16.4057°E)
Time: 04:20:26
(UTC+01:00)

Tiros 1 despin weight - Pass Details

Date: 22 January 2021
Orbit: 593 x 642 km, 48.2° (Epoch: 24 February)

Event Time Altitude Azimuth Distance (km) Brightness Sun altitude
Rises 17:23:54 0° 262° (W) 2,865 ? -8.3°
Reaches altitude 10° 17:26:13 10° 260° (W) 1,953 ? -8.7°
Maximum altitude 17:30:40 71° 177° (S) 637 ? -9.3°
Enters shadow 17:34:52 11° 94° (E) 1,848 ? -10.0°
